Flag for Thailand Weather past 2 weeks in Khon Kaen, Thailand

Now
90 °F

Scattered clouds.


Feels Like: 96 °F
Forecast: 82 / 97 °F
Wind: 3 mph from North

Location: Khon Kaen Airport

Current Time: May 30, 2015 at 9:43:06 AM

Latest Report: May 30, 2015 at 9:00 AM


Visibility: N/A

Pressure: 29.80 "Hg

Humidity: 55%

Dew point: 72 °F

Location of Khon KaenLocation

Historic Weather in Khon Kaen — Graph

°F

Khon Kaen temperature yesterday

Maximum temperature yesterday: 100 °F (at 1:00 PM)
Minimum temperature yesterday: 81 °F (at 3:00 AM)
Average temperature yesterday: 90 °F

Past Weeks' High & Low Weather Summary

 TemperatureHumidityPressure
High100 °F (May 25, 3:00 PM)100% (May 17, 6:00 AM)29.92 "Hg (May 17, 6:00 AM)
Low77 °F (May 18, 7:00 PM)29% (May 25, 4:00 PM)29.59 "Hg (May 28, 5:00 PM)
Average88 °F59%29.73 "Hg
* Reported May 15 8:00 AM — May 30 8:00 AM, Khon Kaen, Weather by CustomWeather, © 2015

Note: Actual official high and low records may vary slightly from our data, if they occured in-between our weather recording intervals... More about our weather records

Advertising

Khon Kaen weather history for previous 24 hours

 ConditionsComfort  
Time TempWeatherWind HumidityBarometerVisibility
8:00 AM
Sat, May 30
88 °FPassing clouds.6 mph59%29.80 "HgN/A
7:00 AM84 °FPassing clouds.3 mph66%29.80 "HgN/A
6:00 AM82 °FPassing clouds.3 mph70%29.77 "HgN/A
5:00 AM84 °FPassing clouds.3 mph66%29.74 "HgN/A
4:00 AM84 °FPassing clouds.2 mph70%29.74 "HgN/A
3:00 AM84 °FClear.5 mph66%29.71 "Hg10 mi
2:00 AM84 °FClear.3 mph66%29.71 "Hg10 mi
1:00 AM84 °FPassing clouds.5 mph66%29.74 "HgN/A
12:00 AM86 °FPassing clouds.5 mph59%29.74 "HgN/A
11:00 PM
Fri, May 29
88 °FPassing clouds.5 mph55%29.77 "HgN/A
7:00 PM95 °FPassing clouds.5 mph39%29.65 "HgN/A
6:00 PM99 °FPassing clouds.5 mph33%29.65 "HgN/A
5:00 PM100 °FPassing clouds.5 mph31%29.62 "HgN/A
4:00 PM100 °FPassing clouds.6 mph33%29.62 "HgN/A
3:00 PM100 °FScattered clouds.8 mph33%29.65 "HgN/A
2:00 PM99 °FScattered clouds.8 mph35%29.68 "HgN/A
1:00 PM100 °FScattered clouds.5 mph35%29.71 "HgN/A
12:00 PM97 °FScattered clouds.5 mph39%29.74 "HgN/A
11:00 AM95 °FPassing clouds.5 mph44%29.77 "HgN/A
10:00 AM93 °FSunny.5 mph47%29.77 "Hg10 mi
9:00 AM90 °FPassing clouds.7 mph55%29.77 "HgN/A
Weather by CustomWeather, © 2015

See weather overviewHow to use our weather pages